{"data":{"norad_id":48043,"epoch":"2026-05-24T22:55:19.674048Z","epoch_age_seconds":93126,"freshness":"FRESH","line1":"1 48043U 21025B   26144.95508882  .00000348  00000+0  91833-3 0  9992","line2":"2 48043  87.8942 324.8476 0001836  87.3431 272.7909 13.13468563250505","mean_motion":13.13468563,"eccentricity":0.0001836,"inclination_deg":87.8942,"raan_deg":324.8476,"arg_perigee_deg":87.3431,"mean_anomaly_deg":272.7909,"bstar":0.00091833,"rev_number":25050,"period_min":109.63338145764,"perigee_km":1208.3777943645,"apogee_km":1211.164074158,"semimajor_km":7587.9079342612,"source":"CELESTRAK","updated_at":"2026-05-25T13:38:22.387566Z"}}